Bismarck, ND (58501)

5:47 AM CDT on March 27, 2017 (GMT -0500)
Apple Meadows | | Change Station

Elev 1732 ft 46.81 °N, 100.67 °W | Updated 10 seconds ago

Partly Cloudy
Partly Cloudy
30.8 °F
Feels Like 31 °F
N
2.0
Wind Variable Wind from ESE

Today
High -- | Low -- °F
--% Chance of Precip.
Yesterday
High -- | Low -- °F
Precip. -- in
Pressure 29.94 in
Visibility 10.0 miles
Clouds Scattered Clouds 11000 ft
Windchill 31 °F
Dew Point 30 °F
Humidity 96%
Rainfall 0.00 in
Snow Depth Not available.
7:31 AM 8:05 PM
Waning Crescent, 1% visible
METAR KBIS 270952Z AUTO 06005KT 10SM SCT110 00/M01 A2990 RMK AO2 SLP136 T00001011
Pressure 29.94 in
Visibility 10.0 miles
Clouds Scattered Clouds 11000 ft
Windchill 31 °F
Dew Point 30 °F
Humidity 96%
Rainfall 0.00 in
Snow Depth Not available.
7:31 AM 8:05 PM
Waning Crescent, 1% visible
METAR KBIS 270952Z AUTO 06005KT 10SM SCT110 00/M01 A2990 RMK AO2 SLP136 T00001011

Get Severe Weather Alerts

Thanks for signing up!

Be on the lookout for a verification email in your inbox.

You'll start receiving the daily forecast at 8 AM.

×

10-Day Weather Forecast

Almanac

Astronomy

Mar. 27, 2017 Rise Set
Actual Time
Civil Twilight
Nautical Twilight
Astronomical Twilight
Moon
Length of Visible Light
Length of Day
Tomorrow will be .
, % of the Moon is Illuminated

Today's Extremes

State Highs State Lows

Community

WunderPhotos

Upload Photos

1,962,540 photos uploaded!

WunderBlog® & News

Nearby

Air Quality

  Air Quality AQ Index Pollutant
Not available.

Snow Depth

Station Depth Elevation

Earthquake Activity

City Distance Mag. Time & Date
Minimum magnitude displayed is 2.5.

Earthquake Activity

City Distance Mag. Time & Date
Minimum magnitude displayed is 2.5.

Coastal Water Temperatures

Place Temperature

Stations

Nearby Weather Stations

Station Location Temp. Windchill Dew Point Humidity Wind Precip. Elev Updated Type
                   

Watches & Warnings

There are currently no watches in effect.